• în România
  • Lista ţărilor
  • Pe 7 zile
  • Temperatura apei
  • Hartă satelitară
  • Meteo pe hartă
  • Widget-uri
  • user-avatar
    Intrare

    Meteo pe oră la Shusha

    Astăzi, 22 Octombrie, Luni

    Timp Temperatura Precipitaţii Vânt Presiune Umiditate
    00:00 +13°C° 0 mm 1 m/s 660 mmHg 70%
    01:00 +13°C° 0 mm 1 m/s 660 mmHg 73%
    02:00 +13°C° 0 mm 1 m/s 660 mmHg 75%
    03:00 +13°C° 0 mm 1 m/s 660 mmHg 76%
    04:00 +13°C° 0 mm 1 m/s 660 mmHg 77%
    05:00 +12°C° 0 mm 1 m/s 660 mmHg 78%
    06:00 +11°C° 0 mm 0 m/s 660 mmHg 79%
    07:00 +14°C° 0 mm 1 m/s 661 mmHg 74%
    08:00 +15°C° 0 mm 1 m/s 661 mmHg 68%
    09:00 +16°C° 0 mm 2 m/s 662 mmHg 62%
    10:00 +17°C° 0 mm 2 m/s 662 mmHg 59%
    11:00 +18°C° 0 mm 2 m/s 662 mmHg 56%
    12:00 +19°C° 0 mm 3 m/s 662 mmHg 53%
    13:00 +19°C° 0 mm 3 m/s 661 mmHg 53%
    14:00 +19°C° 0 mm 3 m/s 661 mmHg 54%
    15:00 +19°C° 0 mm 3 m/s 661 mmHg 55%
    16:00 +17°C° 0.3 mm 2 m/s 661 mmHg 62%
    17:00 +16°C° 0.3 mm 2 m/s 661 mmHg 68%
    18:00 +14°C° 0.3 mm 1 m/s 661 mmHg 74%
    19:00 +14°C° 0 mm 1 m/s 661 mmHg 74%
    20:00 +14°C° 0 mm 1 m/s 661 mmHg 74%
    21:00 +13°C° 0 mm 1 m/s 661 mmHg 74%
    22:00 +13°C° 0 mm 1 m/s 661 mmHg 74%
    23:00 +13°C° 0 mm 1 m/s 661 mmHg 73%

    Mâine, 23 Octombrie, Marţi

    Timp Temperatura Precipitaţii Vânt Presiune Umiditate
    00:00 +13°C° 0 mm 1 m/s 661 mmHg 73%
    01:00 +13°C° 0 mm 1 m/s 661 mmHg 73%
    02:00 +12°C° 0 mm 1 m/s 661 mmHg 73%
    03:00 +12°C° 0 mm 1 m/s 661 mmHg 73%
    04:00 +12°C° 0 mm 1 m/s 661 mmHg 73%
    05:00 +12°C° 0 mm 1 m/s 661 mmHg 73%
    06:00 +11°C° 0 mm 1 m/s 660 mmHg 73%
    07:00 +13°C° 0 mm 1 m/s 661 mmHg 66%
    08:00 +15°C° 0 mm 1 m/s 662 mmHg 60%
    09:00 +16°C° 0 mm 1 m/s 662 mmHg 53%
    10:00 +17°C° 0 mm 2 m/s 662 mmHg 49%
    11:00 +18°C° 0 mm 2 m/s 662 mmHg 45%
    12:00 +19°C° 0 mm 3 m/s 662 mmHg 41%
    13:00 +19°C° 0 mm 2 m/s 662 mmHg 41%
    14:00 +19°C° 0 mm 2 m/s 661 mmHg 42%
    15:00 +19°C° 0 mm 2 m/s 661 mmHg 42%
    16:00 +18°C° 0 mm 2 m/s 661 mmHg 48%
    17:00 +16°C° 0 mm 1 m/s 660 mmHg 55%
    18:00 +15°C° 0 mm 1 m/s 660 mmHg 61%
    19:00 +14°C° 0 mm 1 m/s 660 mmHg 62%
    20:00 +14°C° 0 mm 1 m/s 660 mmHg 63%
    21:00 +13°C° 0 mm 1 m/s 660 mmHg 63%
    22:00 +13°C° 0 mm 1 m/s 660 mmHg 63%
    23:00 +13°C° 0 mm 1 m/s 659 mmHg 62%

    Poimâine, 24 Octombrie, Miercuri

    Timp Temperatura Precipitaţii Vânt Presiune Umiditate
    00:00 +13°C° 0 mm 1 m/s 659 mmHg 62%
    01:00 +12°C° 0 mm 1 m/s 659 mmHg 61%
    02:00 +12°C° 0 mm 1 m/s 659 mmHg 61%
    03:00 +12°C° 0 mm 1 m/s 658 mmHg 61%
    04:00 +12°C° 0 mm 1 m/s 658 mmHg 61%
    05:00 +11°C° 0 mm 1 m/s 658 mmHg 61%
    06:00 +11°C° 0 mm 1 m/s 657 mmHg 61%
    07:00 +13°C° 0 mm 2 m/s 658 mmHg 55%
    08:00 +15°C° 0 mm 2 m/s 659 mmHg 50%
    09:00 +16°C° 0 mm 2 m/s 659 mmHg 45%
    10:00 +17°C° 0 mm 2 m/s 659 mmHg 42%
    11:00 +18°C° 0 mm 3 m/s 658 mmHg 39%
    12:00 +19°C° 0 mm 3 m/s 658 mmHg 36%
    13:00 +19°C° 0 mm 3 m/s 657 mmHg 35%
    14:00 +20°C° 0 mm 3 m/s 657 mmHg 35%
    15:00 +20°C° 0 mm 3 m/s 656 mmHg 35%
    16:00 +18°C° 0 mm 2 m/s 656 mmHg 40%
    17:00 +16°C° 0 mm 1 m/s 655 mmHg 45%
    18:00 +15°C° 0 mm 1 m/s 655 mmHg 49%
    19:00 +15°C° 0 mm 1 m/s 655 mmHg 50%
    20:00 +15°C° 0 mm 1 m/s 655 mmHg 51%
    21:00 +15°C° 0 mm 1 m/s 655 mmHg 52%
    22:00 +14°C° 0 mm 1 m/s 655 mmHg 53%
    23:00 +14°C° 0 mm 1 m/s 654 mmHg 54%

    25 Octombrie, Joi

    Timp Temperatura Precipitaţii Vânt Presiune Umiditate
    00:00 +14°C° 0 mm 2 m/s 654 mmHg 54%
    01:00 +14°C° 0 mm 2 m/s 654 mmHg 55%
    02:00 +13°C° 0 mm 2 m/s 653 mmHg 56%
    03:00 +13°C° 0 mm 2 m/s 653 mmHg 57%
    04:00 +13°C° 0 mm 2 m/s 653 mmHg 57%
    05:00 +12°C° 0 mm 2 m/s 653 mmHg 57%
    06:00 +12°C° 0 mm 2 m/s 653 mmHg 58%
    07:00 +13°C° 0 mm 3 m/s 653 mmHg 50%
    08:00 +16°C° 0 mm 3 m/s 653 mmHg 43%
    09:00 +19°C° 0 mm 3 m/s 654 mmHg 36%
    10:00 +20°C° 0 mm 4 m/s 654 mmHg 33%
    11:00 +21°C° 0 mm 5 m/s 653 mmHg 30%
    12:00 +23°C° 0 mm 5 m/s 653 mmHg 27%
    13:00 +23°C° 0 mm 5 m/s 652 mmHg 27%
    14:00 +23°C° 0 mm 5 m/s 652 mmHg 28%
    15:00 +23°C° 0 mm 4 m/s 651 mmHg 28%
    16:00 +21°C° 0 mm 4 m/s 650 mmHg 33%
    17:00 +19°C° 0 mm 3 m/s 650 mmHg 37%
    18:00 +17°C° 0 mm 2 m/s 649 mmHg 42%
    19:00 +17°C° 0 mm 3 m/s 649 mmHg 43%
    20:00 +17°C° 0 mm 3 m/s 649 mmHg 45%
    21:00 +17°C° 0 mm 4 m/s 649 mmHg 46%
    22:00 +16°C° 0 mm 3 m/s 649 mmHg 48%
    23:00 +14°C° 0 mm 3 m/s 649 mmHg 51%

    26 Octombrie, Vineri

    Timp Temperatura Precipitaţii Vânt Presiune Umiditate
    00:00 +13°C° 0 mm 3 m/s 649 mmHg 53%
    01:00 +14°C° 0 mm 2 m/s 649 mmHg 55%
    02:00 +13°C° 0 mm 2 m/s 649 mmHg 58%
    03:00 +12°C° 0 mm 2 m/s 649 mmHg 60%
    04:00 +12°C° 0 mm 2 m/s 649 mmHg 62%
    05:00 +10°C° 0 mm 2 m/s 649 mmHg 65%
    06:00 +9°C° 0 mm 2 m/s 650 mmHg 68%
    07:00 +10°C° 0.1 mm 3 m/s 650 mmHg 65%
    08:00 +10°C° 0.1 mm 4 m/s 651 mmHg 62%
    09:00 +9°C° 0.1 mm 5 m/s 652 mmHg 59%
    10:00 +9°C° 0.9 mm 5 m/s 652 mmHg 62%
    11:00 +8°C° 0.9 mm 4 m/s 652 mmHg 64%
    12:00 +8°C° 0.9 mm 4 m/s 652 mmHg 66%
    13:00 +9°C° 0.5 mm 3 m/s 653 mmHg 65%
    14:00 +9°C° 0.5 mm 3 m/s 653 mmHg 63%
    15:00 +9°C° 0.5 mm 3 m/s 654 mmHg 62%
    16:00 +9°C° 0 mm 2 m/s 654 mmHg 65%
    17:00 +8°C° 0 mm 2 m/s 655 mmHg 69%
    18:00 +8°C° 0 mm 1 m/s 656 mmHg 72%
    19:00 +8°C° 0 mm 1 m/s 656 mmHg 72%
    20:00 +6°C° 0 mm 2 m/s 657 mmHg 72%
    21:00 +6°C° 0 mm 2 m/s 658 mmHg 72%
    22:00 +6°C° 0 mm 2 m/s 658 mmHg 70%
    23:00 +6°C° 0 mm 2 m/s 658 mmHg 68%

    27 Octombrie, Sâmbătă

    Timp Temperatura Precipitaţii Vânt Presiune Umiditate
    00:00 +5°C° 0 mm 2 m/s 658 mmHg 67%
    01:00 +5°C° 0 mm 2 m/s 659 mmHg 64%
    02:00 +5°C° 0 mm 2 m/s 659 mmHg 61%
    03:00 +5°C° 0 mm 2 m/s 659 mmHg 58%
    04:00 +4°C° 0 mm 2 m/s 660 mmHg 56%
    05:00 +4°C° 0 mm 2 m/s 661 mmHg 55%
    06:00 +4°C° 0 mm 2 m/s 662 mmHg 53%
    07:00 +6°C° 0 mm 2 m/s 663 mmHg 47%
    08:00 +7°C° 0 mm 2 m/s 664 mmHg 41%
    09:00 +9°C° 0 mm 2 m/s 665 mmHg 35%
    10:00 +10°C° 0 mm 2 m/s 665 mmHg 33%
    11:00 +12°C° 0 mm 2 m/s 665 mmHg 31%
    12:00 +12°C° 0 mm 3 m/s 665 mmHg 29%
    13:00 +12°C° 0 mm 3 m/s 665 mmHg 30%
    14:00 +12°C° 0 mm 3 m/s 665 mmHg 31%
    15:00 +12°C° 0 mm 3 m/s 665 mmHg 31%
    16:00 +10°C° 0 mm 2 m/s 666 mmHg 37%
    17:00 +9°C° 0 mm 2 m/s 666 mmHg 42%
    18:00 +8°C° 0 mm 1 m/s 666 mmHg 47%
    19:00 +8°C° 0 mm 1 m/s 667 mmHg 51%
    20:00 +7°C° 0 mm 1 m/s 667 mmHg 55%
    21:00 +6°C° 0 mm 1 m/s 667 mmHg 58%
    22:00 +6°C° 0 mm 1 m/s 667 mmHg 61%
    23:00 +6°C° 0 mm 1 m/s 667 mmHg 64%

    28 Octombrie, Duminică

    Timp Temperatura Precipitaţii Vânt Presiune Umiditate
    00:00 +6°C° 0 mm 1 m/s 667 mmHg 67%
    01:00 +5°C° 0 mm 1 m/s 667 mmHg 67%
    02:00 +5°C° 0 mm 1 m/s 667 mmHg 68%
    03:00 +5°C° 0 mm 1 m/s 668 mmHg 68%
    04:00 +5°C° 0 mm 1 m/s 668 mmHg 68%
    05:00 +5°C° 0 mm 1 m/s 668 mmHg 68%
    06:00 +5°C° 0 mm 1 m/s 668 mmHg 68%
    07:00 +6°C° 0 mm 1 m/s 668 mmHg 64%
    08:00 +8°C° 0 mm 1 m/s 669 mmHg 60%
    09:00 +9°C° 0 mm 1 m/s 669 mmHg 56%
    10:00 +9°C° 0 mm 2 m/s 669 mmHg 53%
    11:00 +10°C° 0 mm 2 m/s 669 mmHg 49%
    12:00 +12°C° 0 mm 2 m/s 669 mmHg 46%
    13:00 +13°C° 0 mm 2 m/s 669 mmHg 47%
    14:00 +13°C° 0 mm 2 m/s 669 mmHg 47%
    15:00 +13°C° 0 mm 2 m/s 668 mmHg 48%
    16:00 +10°C° 0 mm 2 m/s 668 mmHg 54%
    17:00 +10°C° 0 mm 1 m/s 668 mmHg 61%
    18:00 +9°C° 0 mm 1 m/s 668 mmHg 68%
    19:00 +8°C° 0 mm 1 m/s 668 mmHg 68%
    20:00 +8°C° 0 mm 1 m/s 668 mmHg 68%
    21:00 +8°C° 0 mm 1 m/s 668 mmHg 68%
    22:00 +8°C° 0 mm 1 m/s 668 mmHg 68%
    23:00 +7°C° 0 mm 1 m/s 668 mmHg 68%
    Arată mai mult